カタログに戻る

SL-8 R/B

運用中LEO
NORAD 13769·ROCKET BODY·🇷🇺 Russia

打ち上げ Jan 19, 1983 から Plesetsk Cosmodrome

Loading…

次のパス (今後24時間)

TLE

最新Source: Space-Track

元期: Sep 14, 2026, 08:20 UTC

1 13769U 83002J   26257.34756803  .00000032  00000-0  43725-3 0  9996
2 13769  74.0056 215.0649 0136734 291.4342 224.2031 12.21374143946625

AllMySatでSL-8 R/Bをリアルタイム追跡

Download on the App Store